(126465) = 2001 BL39 = 2002 CV38

Discovered at Socorro on 2002-02-07 by LINEAR.

Orbit

Orbit type: Main Belt

Note: WebGL enabled browser required.

epoch2024-03-31.0
epoch JD2460400.5
perihelion date2022-10-23.30953
perihelion JD2459875.80953
argument of perihelion (°)139.84610
ascending node (°)101.43976
inclination (°)3.25844
eccentricity0.0117523
perihelion distance (AU)2.8308134
Tisserand w.r.t. Jupiter3.3
ΔV w.r.t. Earth (km/sec)10.5
semimajor axis (AU)2.8644776
mean anomaly (°)106.66916
mean daily motion (°/day)0.20329920
aphelion distance (AU)2.898
period (years)4.85
P-vector [x]-0.47941812
P-vector [y]-0.81904704
P-vector [z]-0.31515109
Q-vector [x]0.87581653
Q-vector [y]-0.42373903
Q-vector [z]-0.23106415
absolute magnitude15.75
phase slope0.15
uncertainty0
referenceMPEC 2024-C82
observations used600
oppositions18
arc length (days)12063
first opposition used1990
last opposition used2023
residual rms (arc-secs)0.76
perturbers coarse indicatorM-v
perturbers precise indicator003Ek
first observation date used1990-10-21.0
last observation date used2023-10-31.0
computer nameMPCLINUX
JD of orbit computation2456966.923306
perihelion JD uncertainty (days)1.5435E-03
argument of perihelion uncertainty (°)3.3095E-04
ascending node uncertainty (°)1.0855E-04
inclination uncertainty (°)4.0760E-06
eccentricity uncertainty 4.4776E-08
perihelion distance uncertainty (AU)1.2002E-07
Minimum Orbit Intersection Distances (in AU)
for orbit epoch: 2460400.5, reference: E2024-GF4
Mercury2.36683
Venus2.10583
Earth1.81741
Mars1.19319
Jupiter2.06661
Saturn6.14803
Uranus15.5843
Neptune26.9292

Observations

620 total observations over interval: 1990 10 21.39801 – 2023 10 31.225424
These data are available for download (format description).

Date (UT) J2000 RA J2000 Dec Magn Location Ref
1990 10 21.39801 01 51 25.74 +06 21 51.3 21.0 V 691 – Steward Observatory, Kitt Peak-Spacewatch MPS 78249
1990 10 21.41716 01 51 24.77 +06 21 46.5 21.2 V 691 – Steward Observatory, Kitt Peak-Spacewatch MPS 78249
1990 10 21.43569 01 51 23.84 +06 21 42.2 21.0 V 691 – Steward Observatory, Kitt Peak-Spacewatch MPS 78249
2001 01 21.08319 03 08 19.72 +15 22 32.7 21.4 V 691 – Steward Observatory, Kitt Peak-Spacewatch MPS 25719
2001 01 21.09574 03 08 19.98 +15 22 35.1 22.1 V 691 – Steward Observatory, Kitt Peak-Spacewatch MPS 25719
2001 01 21.10861 03 08 20.20 +15 22 37.4 21.4 V 691 – Steward Observatory, Kitt Peak-Spacewatch MPS 25719
2001 01 25.14738 03 09 57.20 +15 34 51.2 21.7 V 691 – Steward Observatory, Kitt Peak-Spacewatch MPS 25719
2001 01 25.16019 03 09 57.53 +15 34 53.6 22.2 V 691 – Steward Observatory, Kitt Peak-Spacewatch MPS 25719
2001 01 25.17363 03 09 57.91 +15 34 56.0 21.7 V 691 – Steward Observatory, Kitt Peak-Spacewatch MPS 25719
2001 12 14.52720 10 17 14.91 +12 50 45.1 21.1 V 691 – Steward Observatory, Kitt Peak-Spacewatch MPS 55369
2001 12 14.53723 10 17 15.10 +12 50 44.5 21.9 V 691 – Steward Observatory, Kitt Peak-Spacewatch MPS 55369
2001 12 14.54737 10 17 15.29 +12 50 44.2 21.5 V 691 – Steward Observatory, Kitt Peak-Spacewatch MPS 55369
2002 01 07.43024 10 18 32.99 +13 21 03.2 20.5 V 691 – Steward Observatory, Kitt Peak-Spacewatch MPS 55369
2002 01 07.45148 10 18 32.66 +13 21 06.8 20.5 V 691 – Steward Observatory, Kitt Peak-Spacewatch MPS 55369
2002 01 07.47260 10 18 32.33 +13 21 10.8 20.4 V 691 – Steward Observatory, Kitt Peak-Spacewatch MPS 55369
2002 02 07.34770 10 01 06.56 +15 40 43.6 20.2   704 – Lincoln Laboratory ETS, New Mexico MPS 50171
2002 02 07.36211 10 01 05.83 +15 40 47.9 19.8   704 – Lincoln Laboratory ETS, New Mexico MPS 50171
2002 02 07.37670 10 01 05.18 +15 40 53.0 19.8   704 – Lincoln Laboratory ETS, New Mexico MPS 50171
2002 02 08.30639 10 00 19.52 +15 45 52.6 19.5   704 – Lincoln Laboratory ETS, New Mexico MPS 50171
2002 02 08.32163 10 00 18.79 +15 45 59.1 20.4   704 – Lincoln Laboratory ETS, New Mexico MPS 50171
2002 02 08.33619 10 00 18.04 +15 46 02.4 20.6   704 – Lincoln Laboratory ETS, New Mexico MPS 50171
2002 02 08.36574 10 00 16.51 +15 46 11.6 20.6   704 – Lincoln Laboratory ETS, New Mexico MPS 50171
2002 02 10.30999 09 58 40.07 +15 56 42.3 19.8   704 – Lincoln Laboratory ETS, New Mexico MPS 55369
2002 02 10.32415 09 58 39.33 +15 56 46.3 20.6   704 – Lincoln Laboratory ETS, New Mexico MPS 55369
2002 02 10.33832 09 58 38.60 +15 56 52.0 19.9   704 – Lincoln Laboratory ETS, New Mexico MPS 55369
2002 02 10.35249 09 58 37.84 +15 56 55.6 20.0   704 – Lincoln Laboratory ETS, New Mexico MPS 55369
2002 02 10.36666 09 58 37.20 +15 57 01.0 21.0   704 – Lincoln Laboratory ETS, New Mexico MPS 55369
2002 02 12.30895 09 56 59.39 +16 07 23.9 19.6   704 – Lincoln Laboratory ETS, New Mexico MPS 50171
2002 02 12.32308 09 56 58.60 +16 07 28.4 19.8   704 – Lincoln Laboratory ETS, New Mexico MPS 50171
2002 02 12.33723 09 56 57.91 +16 07 32.7 20.1   704 – Lincoln Laboratory ETS, New Mexico MPS 50171
2002 02 12.35141 09 56 57.15 +16 07 37.8 19.8   704 – Lincoln Laboratory ETS, New Mexico MPS 50171
2002 02 12.36556 09 56 56.43 +16 07 41.7 19.3   704 – Lincoln Laboratory ETS, New Mexico MPS 50171
2002 02 19.20223 09 51 08.55 +16 43 08.9 19.9 V 291 – LPL/Spacewatch II MPS 55369
2002 02 19.22287 09 51 07.48 +16 43 15.1 19.9 V 291 – LPL/Spacewatch II MPS 55369
2002 02 19.24881 09 51 06.12 +16 43 22.9 20.0 V 291 – LPL/Spacewatch II MPS 55369
2002 03 12.19617 09 35 32.56 +18 06 32.7 20.5   644 – Palomar Mountain/NEAT MPS 55369
2002 03 12.21700 09 35 31.77 +18 06 36.3 20.3   644 – Palomar Mountain/NEAT MPS 55369
2002 03 12.23784 09 35 30.99 +18 06 39.0 20.7   644 – Palomar Mountain/NEAT MPS 55369
2003 05 05.34830 16 06 37.26 -17 18 06.5 19.9   704 – Lincoln Laboratory ETS, New Mexico MPS 78249
2003 05 05.37326 16 06 36.15 -17 18 03.2 19.6   704 – Lincoln Laboratory ETS, New Mexico MPS 78249
2003 05 05.38573 16 06 35.52 -17 18 02.1 19.6   704 – Lincoln Laboratory ETS, New Mexico MPS 78249
2004 08 12.24490 22 50 06.20 -11 34 33.0 19.3   704 – Lincoln Laboratory ETS, New Mexico MPS 111095
2004 08 12.25478 22 50 05.84 -11 34 36.7 20.2   704 – Lincoln Laboratory ETS, New Mexico MPS 111095
2004 08 12.26455 22 50 05.37 -11 34 40.1 19.8   704 – Lincoln Laboratory ETS, New Mexico MPS 111095
2004 08 12.28416 22 50 04.63 -11 34 45.8 20.1   704 – Lincoln Laboratory ETS, New Mexico MPS 111095
2004 09 09.19204 22 28 56.63 -14 00 24.4 19.9   704 – Lincoln Laboratory ETS, New Mexico MPS 112669
2004 09 09.20418 22 28 56.03 -14 00 27.4 20.1   704 – Lincoln Laboratory ETS, New Mexico MPS 112669
2004 09 09.21562 22 28 55.44 -14 00 28.9 19.8   704 – Lincoln Laboratory ETS, New Mexico MPS 112669
2004 09 09.22714 22 28 55.00 -14 00 33.6 19.9   704 – Lincoln Laboratory ETS, New Mexico MPS 112669
2005 10 25.48469 04 54 30.06 +19 37 41.4 19.8 V G96 – Mt. Lemmon Survey MPS 145997
2005 10 25.49005 04 54 29.95 +19 37 41.3 19.9 V G96 – Mt. Lemmon Survey MPS 145997
2005 10 25.49537 04 54 29.84 +19 37 41.0 19.8 V G96 – Mt. Lemmon Survey MPS 145997
2005 10 25.50076 04 54 29.70 +19 37 40.6 19.8 V G96 – Mt. Lemmon Survey MPS 145997
2005 11 28.37156 04 30 07.23 +19 03 28.5 19.2 V 703 – Catalina Sky Survey MPS 153609
2005 11 28.38067 04 30 06.69 +19 03 26.9 19.1 V 703 – Catalina Sky Survey MPS 153609
2005 11 28.38977 04 30 06.12 +19 03 27.5 19.2 V 703 – Catalina Sky Survey MPS 153609
2005 11 28.39885 04 30 05.65 +19 03 21.7 17.7 V 703 – Catalina Sky Survey MPS 153609
2005 11 30.29238 04 28 19.34 +19 01 07.9 19.5 V G96 – Mt. Lemmon Survey MPS 151985
2005 11 30.29900 04 28 18.98 +19 01 07.7 19.0 V G96 – Mt. Lemmon Survey MPS 151985
2005 11 30.30571 04 28 18.58 +19 01 07.3 19.1 V G96 – Mt. Lemmon Survey MPS 151985
2005 11 30.31248 04 28 18.19 +19 01 06.8 18.8 V G96 – Mt. Lemmon Survey MPS 151985
2005 12 01.26283 04 27 24.83 +18 59 57.5 19.4   704 – Lincoln Laboratory ETS, New Mexico MPS 153609
2005 12 01.28903 04 27 23.33 +18 59 56.6 20.1   704 – Lincoln Laboratory ETS, New Mexico MPS 153609
2005 12 01.30197 04 27 22.59 +18 59 54.8 19.5   704 – Lincoln Laboratory ETS, New Mexico MPS 153609
2005 12 01.31484 04 27 21.77 +18 59 54.6 19.6   704 – Lincoln Laboratory ETS, New Mexico MPS 153609
2005 12 02.26406 04 26 28.54 +18 58 46.2 19.3   704 – Lincoln Laboratory ETS, New Mexico MPS 153609
2005 12 02.27713 04 26 27.79 +18 58 45.5 19.6   704 – Lincoln Laboratory ETS, New Mexico MPS 153609
2005 12 02.30322 04 26 26.26 +18 58 42.6 19.6   704 – Lincoln Laboratory ETS, New Mexico MPS 153609
2005 12 04.25994 04 24 36.85 +18 56 24.3 19.4   704 – Lincoln Laboratory ETS, New Mexico MPS 153609
2005 12 04.27287 04 24 36.12 +18 56 24.2 19.9   704 – Lincoln Laboratory ETS, New Mexico MPS 153609
2005 12 04.28619 04 24 35.34 +18 56 22.7 19.3   704 – Lincoln Laboratory ETS, New Mexico MPS 153609
2005 12 04.29924 04 24 34.62 +18 56 23.0 20.3   704 – Lincoln Laboratory ETS, New Mexico MPS 153609
2005 12 04.31218 04 24 33.83 +18 56 21.4 19.6   704 – Lincoln Laboratory ETS, New Mexico MPS 153609
2005 12 23.07876 04 08 58.50 +18 39 38.3 20.3 V 691 – Steward Observatory, Kitt Peak-Spacewatch MPS 157696
2005 12 23.10188 04 08 57.54 +18 39 37.8 20.2 V 691 – Steward Observatory, Kitt Peak-Spacewatch MPS 157696
2005 12 23.14064 04 08 55.90 +18 39 36.6 20.2 V 691 – Steward Observatory, Kitt Peak-Spacewatch MPS 157696
2005 12 23.19860 04 08 53.44 +18 39 35.6 20.1 V 703 – Catalina Sky Survey MPS 155806
2005 12 23.20391 04 08 53.16 +18 39 34.0 19.4 V 703 – Catalina Sky Survey MPS 155806
2005 12 23.20920 04 08 52.94 +18 39 34.7 19.3 V 703 – Catalina Sky Survey MPS 155806
2005 12 23.21449 04 08 52.69 +18 39 34.2 19.6 V 703 – Catalina Sky Survey MPS 155806
2005 12 25.06978 04 07 39.38 +18 38 45.9 20.2 V 691 – Steward Observatory, Kitt Peak-Spacewatch MPS 156509
2005 12 25.08865 04 07 38.63 +18 38 45.5 20.1 V 691 – Steward Observatory, Kitt Peak-Spacewatch MPS 156509
2005 12 25.10409 04 07 38.00 +18 38 45.3 20.0 V 691 – Steward Observatory, Kitt Peak-Spacewatch MPS 156509
2005 12 26.13599 04 06 58.99 +18 38 23.8   291 – LPL/Spacewatch II MPS 156509
